Location: Newark
(22.3145°N, 88.6625°E)
Time: 17:56:12
(UTC+00:00)

OTV 5 (USA 277) - Visible Passes

Search period start: 23 September 2019 00:00
Search period end: 03 October 2019 00:00
Orbit: 295 x 339 km, 54.5° (Epoch: 08 September)

Date Brightness Start Highest point End Pass type
(mag) Time Alt. Az. Time Alt. Az. Time Alt. Az.
25 Sep ? 23:21:20 10° SSE 23:22:56 14° ESE 23:24:30 10° E visible
28 Sep ? 22:31:20 22° SSE 22:32:12 26° ESE 22:34:39 10° ENE visible
29 Sep ? 22:46:38 61° WNW 22:46:40 61° NW 22:49:28 10° NNE visible
30 Sep ? 23:01:43 15° NW 23:01:43 15° NW 23:03:06 10° N visible
